This demonstration page uses our WeatherBlox Daily Observations layout. Learn more.

Left ArrowRight Arrow

Hourly Observations for February 20, 2020

Temp ( °F °C ) Dew Point ( °F °C ) Humidity (%) Winds ( mph kmh ) Pressure ( in mb ) Visibility ( mi km ) Precip ( " mm )
12:53 am 00:53 Clear -2 -18.9 -7 -21.7 79 79 WSW 5 7 30.52 1034 10 16 0.00 0.00
1:53 am 01:53 Clear 0 -17.8 -6 -21.1 76 76 Calm 30.50 1033 10 16 0.00 0.00
2:53 am 02:53 Clear -1 -18.3 -6 -21.1 79 79 ESE 3 6 30.48 1032 10 16 0.00 0.00
3:53 am 03:53 Clear -1 -18.3 -6 -21.1 79 79 Calm 30.46 1032 10 16 0.00 0.00
4:53 am 04:53 Clear -2 -18.9 -6 -21.1 83 83 ESE 3 6 30.45 1031 10 16 0.00 0.00
5:53 am 05:53 Clear 0 -17.8 -4 -20 83 83 E 7 11 30.44 1031 10 16 0.00 0.00
6:53 am 06:53 Clear 0 -17.8 -5 -20.6 79 79 E 5 7 30.43 1031 10 16 0.00 0.00
7:53 am 07:53 Sunny 1 -17.2 -3 -19.4 83 83 E 6 9 30.42 1030 10 16 0.00 0.00
8:53 am 08:53 Sunny 9 -12.8 3 -16.1 77 77 ENE 5 7 30.41 1030 10 16 0.00 0.00
9:53 am 09:53 Sunny 13 -10.6 6 -14.4 74 74 E 5 7 30.40 1029 10 16 0.00 0.00
10:53 am 10:53 Sunny 22 -5.6 11 -11.7 63 63 Calm 30.36 1028 10 16 0.00 0.00
11:53 am 11:53 Sunny 37 2.8 17 -8.3 44 44 SW 18 30 30.31 1026 10 16 0.00 0.00
12:53 pm 12:53 Sunny 40 4.4 20 -6.7 45 45 SW 21 33 30.27 1025 10 16 0.00 0.00
1:53 pm 13:53 Sunny 43 6.1 22 -5.6 43 43 SW 23 37 30.22 1023 10 16 0.00 0.00
2:53 pm 14:53 Sunny 45 7.2 24 -4.4 44 44 SW 22 35 30.19 1022 10 16 0.00 0.00
3:53 pm 15:53 Sunny 46 7.8 24 -4.4 42 42 SW 20 31 30.18 1022 10 16 0.00 0.00
4:53 pm 16:53 Sunny 44 6.7 25 -3.9 47 47 SW 21 33 30.16 1021 10 16 0.00 0.00
5:53 pm 17:53 Clear 40 4.4 24 -4.4 53 53 SW 21 33 30.17 1022 10 16 0.00 0.00
6:53 pm 18:53 Clear 37 2.8 22 -5.6 54 54 WSW 13 20 30.18 1022 10 16 0.00 0.00
7:53 pm 19:53 Clear 38 3.3 18 -7.8 44 44 SSW 20 31 30.18 1022 10 16 0.00 0.00
8:53 pm 20:53 Clear 35 1.7 17 -8.3 48 48 SW 15 24 30.17 1022 10 16 0.00 0.00
9:53 pm 21:53 Clear 32 0 16 -8.9 52 52 SW 14 22 30.17 1022 10 16 0.00 0.00
10:53 pm 22:53 Clear 30 -1.1 15 -9.4 54 54 W 7 11 30.17 1022 10 16 0.00 0.00
11:38 pm 23:38 Clear 30 -1.1 14 -10 51 51 SW 17 28 30.17 1022 10 16 0.00 0.00
11:53 pm 23:53 Clear 30 -1.1 14 -10 51 51 WSW 15 24 30.14 1021 10 16 0.00 0.00

Powered by AerisWeather